TimeEST,TemperatureF,Dew PointF,Humidity,Sea Level PressureIn,VisibilityMPH,Wind Direction,Wind SpeedMPH,Gust SpeedMPH,PrecipitationIn,Events,Conditions,WindDirDegrees,DateUTC
12:53 AM,30.9,30.0,96,30.28,10.0,NNW,4.6,-,N/A,,Clear,330,2012-12-07 05:53:00
1:53 AM,30.0,28.0,92,30.26,10.0,North,3.5,-,N/A,,Clear,350,2012-12-07 06:53:00
2:53 AM,28.0,28.0,100,30.23,10.0,Calm,Calm,-,N/A,,Clear,0,2012-12-07 07:53:00
3:53 AM,30.0,28.9,96,30.22,10.0,Calm,Calm,-,N/A,,Clear,0,2012-12-07 08:53:00
4:53 AM,32.0,32.0,100,30.21,10.0,Calm,Calm,-,N/A,,Overcast,0,2012-12-07 09:53:00
5:53 AM,37.0,35.1,93,30.21,10.0,Calm,Calm,-,N/A,,Overcast,0,2012-12-07 10:53:00
6:53 AM,39.0,37.0,93,30.20,10.0,Calm,Calm,-,N/A,,Overcast,0,2012-12-07 11:53:00
7:53 AM,42.1,41.0,96,30.21,10.0,Calm,Calm,-,0.01,,Overcast,0,2012-12-07 12:53:00
8:53 AM,48.0,46.0,93,30.20,10.0,Calm,Calm,-,0.00,Rain,Light Rain,0,2012-12-07 13:53:00
9:53 AM,50.0,46.0,86,30.20,10.0,Calm,Calm,-,0.00,,Overcast,0,2012-12-07 14:53:00
10:53 AM,51.1,46.0,83,30.18,10.0,SSE,4.6,-,N/A,,Overcast,150,2012-12-07 15:53:00
11:53 AM,52.0,46.9,83,30.15,10.0,SSW,5.8,-,N/A,,Overcast,210,2012-12-07 16:53:00
12:53 PM,52.0,46.9,83,30.13,10.0,Calm,Calm,-,N/A,,Overcast,0,2012-12-07 17:53:00
1:53 PM,53.1,48.0,83,30.10,10.0,Calm,Calm,-,N/A,,Overcast,0,2012-12-07 18:53:00
2:53 PM,53.1,48.0,83,30.09,10.0,SSW,3.5,-,N/A,,Overcast,210,2012-12-07 19:53:00
3:53 PM,52.0,48.0,86,30.08,10.0,SSE,3.5,-,N/A,,Overcast,160,2012-12-07 20:53:00
4:53 PM,48.9,48.0,97,30.07,10.0,Calm,Calm,-,N/A,,Mostly Cloudy,0,2012-12-07 21:53:00
5:53 PM,48.9,48.0,97,30.07,10.0,Calm,Calm,-,N/A,,Mostly Cloudy,0,2012-12-07 22:53:00
6:53 PM,50.0,50.0,100,30.07,10.0,Calm,Calm,-,0.00,,Overcast,0,2012-12-07 23:53:00
8:53 PM,52.0,52.0,100,30.05,5.0,Calm,Calm,-,0.00,,Overcast,0,2012-12-08 01:53:00
9:53 PM,51.1,51.1,100,30.02,4.0,Calm,Calm,-,0.01,,Overcast,0,2012-12-08 02:53:00
10:53 PM,54.0,53.1,97,30.01,10.0,Variable,4.6,-,N/A,,Overcast,0,2012-12-08 03:53:00
11:21 PM,53.6,53.6,100,29.99,10.0,Variable,4.6,-,N/A,,Overcast,0,2012-12-08 04:21:00
11:45 PM,53.6,51.8,94,29.98,10.0,Variable,5.8,-,0.00,,Overcast,0,2012-12-08 04:45:00
11:53 PM,54.0,52.0,93,29.98,10.0,South,5.8,-,0.00,Rain,Light Rain,180,2012-12-08 04:53:00